This demonstration page uses our WeatherBlox Daily Observations layout. Learn more.

40.92945, -100.16068

Hourly Observations for December 18, 2017

Temp ( °F °C ) Dew Point ( °F °C ) Humidity (%) Winds ( mph kmh ) Pressure ( in mb ) Visibility ( mi km ) Precip ( " mm )
12:15 am 00:15 Clear 30 -1 27 -3 86 86 WSW 6 9 30.09 1019 10 16.09344 0 0
12:35 am 00:35 Clear 30 -1 26 -3.2 85 85 WSW 5 7 30.09 1019 10 16.09344 0 0
12:55 am 00:55 Clear 29 -1.6 26 -3.5 87 87 W 6 9 30.09 1019 10 16.09344 0 0
1:15 am 01:15 Clear 29 -1.9 25 -4 86 86 W 7 11 30.09 1019 10 16.09344 0 0
1:35 am 01:35 Clear 28 -2.5 24 -4.4 87 87 W 8 13 30.06 1018 10 16.09344 0 0
1:55 am 01:55 Clear 27 -2.7 24 -4.5 88 88 W 6 9 30.12 1020 10 16.09344 0 0
2:15 am 02:15 Clear 26 -3.4 23 -5.1 88 88 W 7 11 30.09 1019 10 16.09344 0 0
2:35 am 02:35 Clear 26 -3.3 23 -5.1 88 88 W 8 13 30.09 1019 10 16.09344 0 0
2:55 am 02:55 Clear 26 -3.5 22 -5.3 88 88 WSW 5 7 30.09 1019 10 16.09344 0 0
3:15 am 03:15 Clear 25 -3.7 21 -5.9 85 85 W 3 6 30.09 1019 10 16.09344 0 0
3:35 am 03:35 Clear 28 -2.2 24 -4.4 85 85 WNW 5 7 30.06 1018 10 16.09344 0 0
3:55 am 03:55 Clear 25 -3.7 21 -6 84 84 W 8 13 30.09 1019 10 16.09344 0 0
4:15 am 04:15 Clear 22 -5.5 19 -7.5 86 86 WNW 5 7 30.09 1019 10 16.09344 0 0
4:35 am 04:35 Clear 22 -5.8 18 -7.7 87 87 Calm 30.15 1021 10 16.09344 0 0
4:55 am 04:55 Clear 22 -5.4 19 -7 89 89 Calm 30.12 1020 10 16.09344 0 0
5:15 am 05:15 Clear 22 -5.5 19 -7.1 89 89 Calm 30.15 1021 10 16.09344 0 0
5:35 am 05:35 Clear 22 -5.5 20 -6.9 90 90 W 5 7 30.09 1019 10 16.09344 0 0
5:55 am 05:55 Clear 19 -7.1 16 -8.7 89 89 NNW 6 9 30.12 1020 10 16.09344 0 0
6:15 am 06:15 Clear 19 -7 17 -8.5 89 89 NNW 7 11 30.12 1020 10 16.09344 0 0
6:35 am 06:35 Clear 20 -6.8 17 -8.6 87 87 NW 3 6 30.12 1020 10 16.09344 0 0
6:55 am 06:55 Clear 21 -6.2 17 -8.1 87 87 NW 5 7 30.12 1020 10 16.09344 0 0
7:15 am 07:15 Clear 19 -7 16 -9 86 86 NW 5 7 30.15 1021 10 16.09344 0 0
7:35 am 07:35 Clear 19 -7.3 15 -9.4 85 85 NW 5 7 30.15 1021 10 16.09344 0 0
7:55 am 07:55 Clear 19 -7.3 15 -9.3 86 86 NW 6 9 30.15 1021 10 16.09344 0 0
8:15 am 08:15 Sunny 19 -7 16 -8.7 88 88 WNW 5 7 30.15 1021 7 11.265408 0 0
8:35 am 08:35 Sunny 20 -6.4 17 -8.4 86 86 WNW 5 7 30.15 1021 10 16.09344 0 0
8:55 am 08:55 Sunny 24 -4.3 21 -6.1 87 87 WNW 3 6 30.12 1020 10 16.09344 0 0
9:15 am 09:15 Sunny 26 -3.1 22 -5.3 85 85 Calm 30.12 1020 10 16.09344 0 0
9:35 am 09:35 Sunny 29 -1.8 24 -4.5 82 82 Calm 30.09 1019 10 16.09344 0 0
9:55 am 09:55 Sunny 31 -0.3 26 -3.2 81 81 Calm 30.09 1019 10 16.09344 0 0
10:15 am 10:15 Sunny 35 1.4 29 -1.8 80 80 Calm 30.06 1018 10 16.09344 0 0
10:35 am 10:35 Sunny 38 3.1 30 -1.2 74 74 Calm 30.06 1018 10 16.09344 0 0
10:55 am 10:55 Sunny 42 5.4 31 -0.4 67 67 W 5 7 30.03 1017 10 16.09344 0 0
11:15 am 11:15 Sunny 47 8.1 30 -0.9 53 53 WSW 10 17 30 1016 10 16.09344 0 0
11:35 am 11:35 Sunny 48 8.7 29 -1.9 48 48 WSW 10 17 29.97 1015 10 16.09344 0 0
11:55 am 11:55 Sunny 50 9.8 28 -2.1 44 44 SW 13 20 29.94 1014 10 16.09344 0 0
12:15 pm 12:15 Sunny 51 10.5 27 -2.6 40 40 WSW 15 24 29.94 1014 10 16.09344 0 0
12:35 pm 12:35 Sunny 52 11.1 27 -2.8 38 38 WSW 16 26 29.91 1013 10 16.09344 0 0
12:55 pm 12:55 Sunny 53 11.4 27 -2.7 38 38 WSW 13 20 29.91 1013 10 16.09344 0 0
1:15 pm 13:15 Sunny 54 12 26 -3.5 34 34 WSW 17 28 29.91 1013 10 16.09344 0 0
1:35 pm 13:35 Sunny 54 12.4 25 -4 32 32 SW 21 33 29.85 1011 10 16.09344 0 0
1:55 pm 13:55 Sunny 55 12.8 25 -4 31 31 SW 18 30 29.85 1011 10 16.09344 0 0
2:15 pm 14:15 Sunny 55 13 25 -3.9 31 31 SW 23 37 29.83 1010 10 16.09344 0 0
2:35 pm 14:35 Sunny 56 13.1 25 -3.7 31 31 WSW 13 20 29.85 1011 10 16.09344 0 0
2:55 pm 14:55 Sunny 56 13.1 25 -3.9 31 31 SW 18 30 29.83 1010 10 16.09344 0 0
3:15 pm 15:15 Sunny 56 13.1 26 -3.5 32 32 SW 17 28 29.83 1010 10 16.09344 0 0
3:35 pm 15:35 Sunny 56 13.5 26 -3.2 31 31 SW 16 26 29.83 1010 10 16.09344 0 0
3:55 pm 15:55 Sunny 55 13 26 -3.3 32 32 SW 14 22 29.83 1010 10 16.09344 0 0
4:15 pm 16:15 Sunny 54 12.4 26 -3.1 34 34 SW 12 19 29.83 1010 10 16.09344 0 0
4:35 pm 16:35 Sunny 55 12.5 27 -3 34 34 SW 12 19 29.83 1010 10 16.09344 0 0
4:55 pm 16:55 Sunny 54 12.4 27 -3 34 34 SW 13 20 29.83 1010 10 16.09344 0 0
5:15 pm 17:15 Clear 53 11.6 27 -3 36 36 SSW 12 19 29.85 1011 10 16.09344 0 0
5:35 pm 17:35 Clear 52 11 27 -2.7 39 39 SSW 10 17 29.85 1011 10 16.09344 0 0
5:55 pm 17:55 Clear 51 10.8 27 -2.7 39 39 SW 10 17 29.85 1011 10 16.09344 0 0
6:15 pm 18:15 Clear 51 10.7 27 -2.9 39 39 SW 7 11 29.85 1011 10 16.09344 0 0
6:35 pm 18:35 Clear 50 10 27 -3 40 40 SW 8 13 29.88 1012 10 16.09344 0 0
6:55 pm 18:55 Clear 50 10 26 -3.1 40 40 SSW 9 15 29.88 1012 10 16.09344 0 0
7:15 pm 19:15 Clear 50 10 27 -3 40 40 WSW 6 9 29.88 1012 10 16.09344 0 0
7:35 pm 19:35 Clear 47 8.5 26 -3.3 44 44 WSW 6 9 29.91 1013 10 16.09344 0 0
7:55 pm 19:55 Clear 47 8.2 26 -3.3 44 44 SW 6 9 29.91 1013 10 16.09344 0 0
8:15 pm 20:15 Clear 45 7.1 26 -3.2 48 48 WSW 6 9 29.94 1014 10 16.09344 0 0
8:35 pm 20:35 Clear 43 6 26 -3.3 52 52 Calm 29.94 1014 10 16.09344 0 0
8:55 pm 20:55 Clear 42 5.8 26 -3.2 53 53 Calm 29.97 1015 10 16.09344 0 0
9:15 pm 21:15 Clear 43 6.3 27 -3 52 52 S 3 6 29.94 1014 10 16.09344 0 0
9:35 pm 21:35 Clear 44 6.5 26 -3.3 50 50 SW 5 7 29.94 1014 10 16.09344 0 0
9:55 pm 21:55 Clear 42 5.4 25 -3.9 52 52 W 5 7 29.97 1015 10 16.09344 0 0
10:15 pm 22:15 Clear 41 4.8 25 -3.8 54 54 WNW 3 6 29.97 1015 10 16.09344 0 0
10:35 pm 22:35 Clear 35 1.7 24 -4.4 64 64 NW 3 6 30 1016 10 16.09344 0 0
10:55 pm 22:55 Clear 35 1.7 24 -4.7 63 63 NW 7 11 30 1016 10 16.09344 0 0
11:15 pm 23:15 Clear 34 1 24 -4.7 66 66 NNW 7 11 30 1016 10 16.09344 0 0
11:35 pm 23:35 Clear 34 0.9 23 -4.8 66 66 NW 3 6 30 1016 10 16.09344 0 0
11:55 pm 23:55 Clear 33 0.8 23 -5.2 65 65 WNW 5 7 30 1016 10 16.09344 0 0

Powered by AerisWeather